Weather History for Pampa, TX

Change the Weather History Date:

Tuesday, July 30, 2013

  Actual Average Record
Temperature  
Mean Temperature 75 °F -  
Max Temperature 86 °F 90 °F 104 °F (1986)
Min Temperature 65 °F 65 °F 54 °F (1971)
Cooling Degree Days 10    
Growing Degree Days 25 (Base 50)    
Moisture  
Dew Point 63 °F    
Average Humidity 67    
Maximum Humidity 86    
Minimum Humidity 47    
Precipitation  
Precipitation 0.00 in - - ()
Sea Level Pressure  
Sea Level Pressure 30.14 in    
Wind  
Wind Speed 12 mph (NE)    
Max Wind Speed 28 mph    
Max Gust Speed 38 mph    
Visibility 10 miles    
Events Rain , Thunderstorm    
Averages and records for this station are not official NWS values.
T = Trace of Precipitation, MM = Missing Value Source: NWS Daily Summary

Daily Weather History Graph

Daily Weather History Graph

Search for Another Location

Airport:

Trip Planner

Search our weather history database for the weather conditions in past years. The results will help you decide how hot, cold, wet, or windy it might be!

Date:

Astronomy

Jul. 30, 2013 Rise Set
Actual Time 6:50 AM CDT 8:49 PM CDT
Civil Twilight 6:22 AM CDT 9:17 PM CDT
Nautical Twilight 5:48 AM CDT 9:51 PM CDT
Astronomical Twilight 5:11 AM CDT 10:28 PM CDT
Moon 1:08 AM CDT (7/30) 3:12 PM CDT (7/30)
Length of Visible Light 14h 55m
Length of Day
13h 58m
Last Quarter, 41% of the Moon is Illuminated
Jul 30
Last Quarter
Aug 6
New
Aug 14
First Quarter
Aug 20
Full
Aug 28
Last Quarter

Hourly Weather History & Observations

Time (CDT) Temp. Heat Index Dew Point Humidity Pressure Visibility Wind Dir Wind Speed Gust Speed Precip Events Conditions
12:15 AM 74.8 °F - 61.9 °F 64% 30.08 in 10.0 mi North 27.6 mph 38.0 mph N/A   Mostly Cloudy
12:35 AM 70.0 °F - 62.2 °F 76% 30.07 in 10.0 mi NNE 20.7 mph 29.9 mph N/A   Mostly Cloudy
12:55 AM 71.8 °F - 61.3 °F 70% 30.06 in 10.0 mi NNE 13.8 mph - N/A   Scattered Clouds
1:15 AM 72.1 °F - 61.7 °F 70% 30.05 in 10.0 mi NE 5.8 mph - N/A   Clear
1:35 AM 72.9 °F - 61.3 °F 67% 30.05 in 10.0 mi NE 8.1 mph - N/A   Scattered Clouds
1:55 AM 72.7 °F - 61.3 °F 67% 30.03 in 10.0 mi NE 5.8 mph - N/A   Scattered Clouds
2:15 AM 72.5 °F - 61.2 °F 67% 30.05 in 10.0 mi East 6.9 mph - N/A   Clear
2:35 AM 72.3 °F - 60.8 °F 67% 30.05 in 10.0 mi SE 3.5 mph - N/A   Clear
2:55 AM 71.8 °F - 61.9 °F 71% 30.08 in 10.0 mi NW 17.3 mph 23.0 mph N/A   Scattered Clouds
3:15 AM 71.8 °F - 65.3 °F 80% 30.10 in 10.0 mi North 18.4 mph 26.5 mph N/A   Mostly Cloudy
3:35 AM 70.7 °F - 64.6 °F 81% 30.12 in 10.0 mi East 13.8 mph - N/A Thunderstorm Thunderstorm
3:55 AM 70.3 °F - 64.2 °F 81% 30.11 in 10.0 mi NE 6.9 mph - N/A Thunderstorm Scattered Clouds
4:15 AM 71.1 °F - 61.2 °F 71% 30.11 in 10.0 mi East 6.9 mph - N/A Thunderstorm Mostly Cloudy
4:35 AM 70.7 °F - 61.7 °F 73% 30.18 in 10.0 mi West 17.3 mph 23.0 mph N/A   Overcast
4:55 AM 65.3 °F - 60.8 °F 85% 30.14 in 4.0 mi North 24.2 mph 32.2 mph N/A Rain Heavy Rain
5:15 AM 65.3 °F - 61.0 °F 86% 30.08 in 10.0 mi NE 13.8 mph - N/A Rain , Thunderstorm Light Thunderstorms and Rain
5:35 AM 66.6 °F - 60.4 °F 81% 30.06 in 10.0 mi NNE 5.8 mph - N/A Rain , Thunderstorm Light Thunderstorms and Rain
5:55 AM 67.3 °F - 61.0 °F 80% 30.02 in 10.0 mi East 11.5 mph - N/A   Scattered Clouds
6:15 AM 67.6 °F - 61.0 °F 79% 30.02 in 10.0 mi SSE 11.5 mph - N/A   Clear
6:35 AM 67.3 °F - 60.6 °F 79% 30.09 in 10.0 mi NW 19.6 mph 29.9 mph N/A   Clear
6:55 AM 67.5 °F - 59.5 °F 76% 30.12 in 10.0 mi WNW 9.2 mph - N/A   Clear
7:15 AM 67.5 °F - 60.8 °F 79% 30.14 in 10.0 mi WNW 11.5 mph 18.4 mph N/A   Clear
7:35 AM 66.9 °F - 61.2 °F 82% 30.15 in 10.0 mi NW 9.2 mph - N/A   Clear
7:55 AM 68.0 °F - 61.7 °F 80% 30.16 in 10.0 mi NW 8.1 mph - N/A   Clear
8:15 AM 69.3 °F - 62.8 °F 80% 30.16 in 10.0 mi NW 6.9 mph - N/A   Scattered Clouds
8:35 AM 70.2 °F - 63.0 °F 78% 30.17 in 10.0 mi WNW 6.9 mph - N/A   Mostly Cloudy
8:55 AM 70.7 °F - 63.7 °F 78% 30.17 in 10.0 mi NNW 4.6 mph - N/A   Scattered Clouds
9:15 AM 71.4 °F - 64.8 °F 79% 30.18 in 10.0 mi NNW 5.8 mph - N/A   Scattered Clouds
9:35 AM 71.6 °F - 64.9 °F 79% 30.17 in 10.0 mi North 6.9 mph - N/A   Scattered Clouds
9:55 AM 73.6 °F - 64.4 °F 73% 30.17 in 10.0 mi North 8.1 mph - N/A   Scattered Clouds
10:15 AM 75.4 °F - 64.8 °F 69% 30.18 in 10.0 mi North 6.9 mph - N/A   Scattered Clouds
10:35 AM 76.1 °F - 64.2 °F 67% 30.18 in 10.0 mi North 8.1 mph - N/A   Scattered Clouds
10:55 AM 76.1 °F - 65.3 °F 69% 30.18 in 10.0 mi North 12.7 mph - N/A   Mostly Cloudy
11:15 AM 76.8 °F - 65.5 °F 68% 30.18 in 10.0 mi North 12.7 mph 16.1 mph N/A   Scattered Clouds
11:55 AM 77.2 °F - 66.7 °F 70% 30.18 in 10.0 mi North 12.7 mph 17.3 mph N/A   Scattered Clouds
12:15 PM 76.5 °F - 66.7 °F 72% 30.18 in 10.0 mi North 12.7 mph - N/A   Scattered Clouds
12:35 PM 77.4 °F - 66.2 °F 68% 30.18 in 10.0 mi NNE 10.4 mph 16.1 mph N/A   Mostly Cloudy
1:15 PM 79.2 °F - 65.8 °F 64% 30.18 in 10.0 mi North 11.5 mph 16.1 mph N/A   Mostly Cloudy
1:35 PM 79.5 °F - 65.3 °F 62% 30.17 in 10.0 mi NNE 9.2 mph - N/A   Mostly Cloudy
1:55 PM 80.4 °F 82.2 °F 64.8 °F 59% 30.16 in 10.0 mi NNE 10.4 mph - N/A   Mostly Cloudy
2:15 PM 81.7 °F 83.2 °F 64.0 °F 55% 30.16 in 10.0 mi NE 9.2 mph - N/A   Scattered Clouds
2:35 PM 81.7 °F 83.2 °F 64.0 °F 55% 30.16 in 10.0 mi NNE 5.8 mph - N/A   Scattered Clouds
2:55 PM 82.0 °F 83.6 °F 64.2 °F 55% 30.16 in 10.0 mi NE 10.4 mph 16.1 mph N/A   Scattered Clouds
3:15 PM 82.9 °F 84.6 °F 64.6 °F 54% 30.16 in 10.0 mi NE 8.1 mph - N/A   Scattered Clouds
3:35 PM 83.3 °F 84.3 °F 63.1 °F 50% 30.16 in 10.0 mi NE 4.6 mph - N/A   Clear
3:55 PM 84.0 °F 85.2 °F 63.3 °F 50% 30.16 in 7.0 mi NNE 5.8 mph - N/A   Clear
4:15 PM 84.2 °F 85.4 °F 63.7 °F 50% 30.16 in 10.0 mi NE 5.8 mph - N/A   Clear
4:35 PM 84.6 °F 85.6 °F 63.3 °F 49% 30.16 in 10.0 mi NE 4.6 mph - N/A   Clear
4:55 PM 84.9 °F 85.9 °F 63.5 °F 48% 30.15 in 10.0 mi NNE 8.1 mph - N/A   Clear
5:15 PM 85.1 °F 85.9 °F 62.8 °F 47% 30.14 in 10.0 mi NNE 6.9 mph - N/A   Clear
5:35 PM 85.3 °F 86.1 °F 63.0 °F 47% 30.14 in 10.0 mi East 8.1 mph - N/A   Clear
5:55 PM 85.1 °F 85.9 °F 62.8 °F 47% 30.14 in 10.0 mi NE 8.1 mph - N/A   Clear
6:15 PM 85.1 °F 85.9 °F 62.8 °F 47% 30.14 in 10.0 mi ENE 5.8 mph - N/A   Clear
6:35 PM 85.1 °F 85.9 °F 62.8 °F 47% 30.14 in 10.0 mi ENE 4.6 mph - N/A   Clear
6:55 PM 84.4 °F 85.0 °F 61.9 °F 47% 30.13 in 10.0 mi NE 3.5 mph - N/A   Clear
7:15 PM 84.4 °F 85.4 °F 63.1 °F 49% 30.13 in 10.0 mi NE 6.9 mph - N/A   Clear
7:35 PM 83.8 °F 85.1 °F 63.9 °F 51% 30.13 in 10.0 mi ESE 6.9 mph - N/A   Clear
7:55 PM 82.9 °F 84.4 °F 64.0 °F 53% 30.13 in 10.0 mi East 8.1 mph - N/A   Clear
8:15 PM 81.7 °F 83.3 °F 64.4 °F 56% 30.14 in 10.0 mi East 6.9 mph - N/A   Clear
8:35 PM 79.7 °F - 64.8 °F 60% 30.14 in 10.0 mi ESE 6.9 mph - N/A   Clear
8:55 PM 78.3 °F - 64.4 °F 62% 30.13 in 10.0 mi ESE 9.2 mph - N/A   Clear
9:15 PM 76.8 °F - 64.6 °F 66% 30.13 in 10.0 mi ESE 9.2 mph - N/A   Clear
9:35 PM 76.1 °F - 65.1 °F 69% 30.14 in 10.0 mi SE 5.8 mph - N/A   Clear
9:55 PM 75.2 °F - 65.5 °F 72% 30.16 in 10.0 mi SE 6.9 mph - N/A   Clear
10:15 PM 74.1 °F - 65.5 °F 74% 30.17 in 10.0 mi ESE 6.9 mph - N/A   Clear
10:35 PM 73.6 °F - 65.3 °F 75% 30.18 in 10.0 mi SE 6.9 mph - N/A   Clear
10:55 PM 72.5 °F - 65.3 °F 78% 30.18 in 10.0 mi SE 6.9 mph - N/A   Clear
11:15 PM 71.6 °F - 64.9 °F 79% 30.19 in 10.0 mi SE 5.8 mph - N/A   Clear
11:35 PM 71.6 °F - 64.6 °F 78% 30.19 in 10.0 mi SE 6.9 mph - N/A   Clear
11:55 PM 70.9 °F - 64.6 °F 80% 30.19 in 10.0 mi ESE 6.9 mph - N/A   Clear